{"data":{"norad_id":68640,"intl_designator":"2026-075E","name":"QIANFAN-113","alt_names":[],"object_type":"PAYLOAD","status":"ACTIVE","operator":null,"country":"PRC","launch_date":"2026-04-07","launch_site_code":"WSC","launch_vehicle":null,"mission":null,"orbit_class":"UNKNOWN","rcs_meters":null,"size_class":null,"mass_kg":null,"dimensions":null,"purposes":[],"wikipedia_slug":null,"has_3d_model":false,"image_url":null,"decayed_at":null,"tle_current":{"epoch":"2026-05-24T18:42:06.482016Z","epoch_age_seconds":90734,"freshness":"FRESH","line1":"1 68640U 26075E   26144.77924169 -.02066049  00000+0 -27838+1 0  9992","line2":"2 68640  88.9869 323.4172 0011434  75.0559 285.1865 13.63894363  6636","mean_motion":13.63894363,"eccentricity":0.0011434,"inclination_deg":88.9869,"raan_deg":323.4172,"arg_perigee_deg":75.0559,"mean_anomaly_deg":285.1865,"bstar":-2.7838,"rev_number":663,"period_min":105.58002430867,"perigee_km":1013.1119210946,"apogee_km":1030.0335773491,"semimajor_km":7399.7097492218,"source":"CELESTRAK","updated_at":"2026-05-25T13:38:07.990660Z"}}}